x

8452951 - Potter Cove, Prudence Island, Ri (ptcr1) Weather Station

4:54am - Tue 28th Jun 2016 All times are EDT. -4 hours from GMT.

  • Wind
    5mph, 9mph gusts
  • 空気 Temp 68°f
  • Sea Pressure 1016.5mb
  • 8452951 - Potter Cove, Prudence Island, Ri
  • 8452951 - Potter Cove, Prudence Island, Ri

More Historic Weather Station data

Upgrade to MSW Pro to gain access to the past 30 days of data for over 8000 Wavebouys and Weather Stations around the globe.

Join Pro

Comparision Forecast

View Surf forecast
   
Tue 06/28 4:54am 5 9 mph 1016.5mb 68f
4:48am 5 9 mph 1016.4mb 68f
4:42am 5 9 mph 1016.4mb 68f
4:36am 3 11 mph 1016.4mb 68f
4:30am 3 7 mph 1016.4mb 68f
4:24am 5 9 mph 1016.4mb 68f
4:18am 5 10 mph 1016.4mb 68f
4:12am 5 10 mph 1016.4mb 68f
4:06am 3 10 mph 1016.4mb 68f
4:00am 6 10 mph 1016.3mb 68f
3:54am 6 13 mph 1016.3mb 68f
3:48am 6 11 mph 1016.3mb 68f
3:42am 5 10 mph 1016.4mb 68f
3:36am 6 14 mph 1016.5mb 68f
3:30am 6 11 mph 1016.5mb 68f
3:24am 6 10 mph 1016.6mb 68f
3:18am 5 9 mph 1016.7mb 68f
3:12am 5 9 mph 1016.7mb 67f
3:06am 5 9 mph 1016.8mb 68f
3:00am 3 10 mph 1016.9mb 68f
2:54am 5 10 mph 1016.9mb 68f
2:48am 3 8 mph 1017mb -
2:42am 6 10 mph 1017.1mb -
2:36am 5 9 mph 1017.1mb -
2:30am 5 9 mph 1017.3mb 68f
2:24am 5 10 mph 1017.3mb 68f
2:18am 5 9 mph 1017.3mb 68f
2:12am 3 9 mph 1017.4mb 68f
2:06am 5 10 mph 1017.4mb 68f
2:00am 5 10 mph 1017.4mb 68f
1:54am 3 9 mph 1017.4mb 67f
1:48am 3 9 mph - -
1:42am 2 7 mph - -
1:36am 3 8 mph - -
1:30am 3 6 mph 1017.6mb 67f
1:24am 5 8 mph 1017.6mb 67f
1:18am 3 9 mph 1017.7mb 67f
1:12am 3 8 mph 1017.7mb 67f
1:06am 5 9 mph 1017.7mb 67f
1:00am 5 10 mph 1017.8mb 68f
12:54am 3 9 mph 1017.8mb 68f
12:48am 5 10 mph 1017.8mb 68f
12:42am 5 9 mph 1017.8mb 68f
12:36am 3 8 mph 1017.8mb 68f
12:30am 3 9 mph 1017.9mb 68f
12:24am 5 9 mph 1017.9mb 68f
12:18am 3 7 mph 1017.9mb 68f
12:12am 3 10 mph 1018mb 68f
12:06am 5 8 mph 1018mb 68f
12:00am 5 8 mph 1018mb 68f
Mon 06/27 11:54pm 5 8 mph 1018.1mb 68f
11:48pm  -  mph 1018.2mb 68f
11:42pm  -  mph 1018.3mb 68f
11:36pm  -  mph 1018.2mb 68f
11:30pm 5 10 mph 1018.1mb 68f
11:24pm 5 10 mph 1018.1mb 68f
11:18pm 5 8 mph 1018.1mb 68f
11:12pm 5 11 mph 1018.3mb 68f
11:06pm 3 8 mph 1018.3mb 68f
11:00pm  -  mph - 68f
10:54pm  -  mph - 68f
10:48pm  -  mph 1018.3mb -
10:42pm  -  mph 1018.3mb -
10:36pm  -  mph 1018.3mb -
10:30pm  -  mph 1018.2mb -
10:24pm  -  mph 1018.1mb -
10:18pm  -  mph 1018.1mb 68f
10:12pm  -  mph 1018.2mb 68f
10:06pm  -  mph 1018.2mb 68f
10:00pm  -  mph 1018.2mb 68f
9:54pm  -  mph 1018.2mb 69f
9:48pm  -  mph 1018.3mb -
9:42pm  -  mph 1018.3mb -
9:36pm  -  mph 1018.3mb -
9:30pm  -  mph 1018.3mb -
9:24pm  -  mph 1018.2mb -
9:18pm  -  mph 1018.1mb -
9:12pm  -  mph 1018mb -
9:06pm  -  mph 1018mb -
9:00pm  -  mph 1017.9mb 69f
8:54pm  -  mph 1017.9mb 69f
8:48pm  -  mph 1017.9mb -
8:42pm  -  mph 1017.8mb -
8:36pm  -  mph 1017.8mb -
8:30pm  -  mph 1017.8mb -
8:24pm  -  mph 1017.6mb -
8:18pm  -  mph 1017.6mb -
8:12pm  -  mph 1017.6mb -
8:06pm  -  mph 1017.7mb -
8:00pm  -  mph 1017.8mb -
7:54pm  -  mph 1017.7mb -
7:48pm  -  mph 1017.7mb -
7:42pm  -  mph 1017.7mb -
7:36pm  -  mph 1017.7mb -
7:30pm  -  mph 1017.7mb -
7:24pm  -  mph 1017.7mb -
7:18pm  -  mph 1017.7mb -
7:12pm  -  mph 1017.7mb -
7:06pm  -  mph 1017.7mb -
7:00pm  -  mph 1017.7mb -
6:54pm  -  mph 1017.8mb -
6:48pm  -  mph 1017.8mb -
6:42pm  -  mph 1017.8mb -
6:36pm  -  mph 1017.8mb -
6:30pm  -  mph 1017.8mb -
6:24pm  -  mph 1017.8mb -
6:18pm  -  mph - 72f
6:12pm  -  mph - 72f
6:06pm  -  mph - 73f
6:00pm  -  mph 1017.9mb -
5:54pm  -  mph 1017.9mb -
5:48pm  -  mph 1017.9mb 72f
5:42pm  -  mph 1018mb 72f
5:36pm  -  mph 1018mb 71f
5:30pm 6 14 mph 1018mb 71f
5:24pm 6 13 mph 1018mb 72f
5:18pm 6 15 mph 1018mb 72f
5:12pm 7 11 mph 1018.1mb 71f
5:06pm 7 13 mph 1018.1mb 71f
5:00pm 6 11 mph 1018.1mb 71f
4:54pm 7 11 mph 1018.2mb 70f
4:48pm 7 15 mph 1018.2mb 70f
4:42pm 5 9 mph 1018.3mb 71f
4:36pm 6 9 mph 1018.4mb 71f
4:30pm 5 9 mph 1018.4mb 70f
4:24pm 5 10 mph 1018.5mb 70f
4:18pm 6 10 mph 1018.5mb 70f
4:12pm 6 11 mph 1018.6mb 70f
4:06pm 6 11 mph 1018.5mb 70f
4:00pm 6 10 mph 1018.5mb 70f
3:54pm 7 16 mph 1018.6mb 70f
3:48pm 7 11 mph 1018.5mb 70f
3:42pm 7 14 mph 1018.6mb 70f
3:36pm 7 16 mph 1018.6mb 70f
3:30pm 7 14 mph 1018.7mb 70f
3:24pm 6 10 mph 1018.7mb 71f
3:18pm 5 14 mph 1018.7mb 70f
3:12pm 7 16 mph 1018.7mb 70f
3:06pm 8 15 mph 1018.7mb 69f
3:00pm 8 21 mph 1018.6mb 69f
2:54pm 7 15 mph 1018.6mb 69f
2:48pm  -  mph 1018.6mb 69f
2:42pm  -  mph 1018.6mb 70f
2:36pm  -  mph 1018.6mb 70f
2:30pm 9 18 mph 1018.6mb 71f
2:24pm 8 18 mph 1018.7mb 71f
2:18pm 8 18 mph 1018.6mb 73f
2:12pm 8 15 mph 1018.6mb 73f
2:06pm 8 18 mph 1018.7mb 73f
2:00pm 8 21 mph 1018.6mb 73f
1:54pm 7 15 mph 1018.7mb 74f
1:48pm 8 15 mph 1018.8mb 73f
1:42pm 8 16 mph 1018.8mb 73f
1:36pm 8 20 mph 1018.8mb 73f
1:30pm 8 16 mph 1018.9mb 73f
1:24pm 8 17 mph 1019mb 73f
1:18pm 8 17 mph 1019.1mb 73f
1:12pm 6 15 mph 1019.2mb 74f
1:06pm 6 14 mph 1019.2mb 74f
1:00pm 8 16 mph 1019.3mb 73f
12:54pm 8 14 mph 1019.3mb 73f
12:48pm 9 15 mph 1019.4mb 73f
12:42pm 7 14 mph 1019.5mb 73f
12:36pm 8 15 mph 1019.4mb 73f
12:30pm 7 13 mph 1019.4mb 73f
12:24pm 8 16 mph 1019.6mb 73f
12:18pm 6 15 mph 1019.6mb 73f
12:12pm 7 14 mph 1019.7mb 73f
12:06pm 7 15 mph 1019.7mb 72f
12:00pm 8 15 mph 1019.7mb 72f
11:54am 9 16 mph 1019.7mb 72f
11:48am 8 18 mph 1019.8mb 71f
11:42am 9 20 mph 1019.8mb 71f
11:36am 8 20 mph 1019.8mb 71f
11:30am 9 17 mph 1019.9mb 72f
11:24am 7 16 mph 1019.8mb 72f
11:18am 8 17 mph 1019.9mb 73f
11:12am 5 10 mph 1019.9mb 74f
11:06am 7 15 mph 1020mb 73f
11:00am 5 13 mph 1019.8mb 74f
10:54am 7 13 mph 1019.7mb 73f
10:48am 7 13 mph 1019.7mb 73f
10:42am 7 14 mph 1019.7mb 73f
10:36am 5 10 mph 1019.7mb 73f
10:30am 7 13 mph 1019.8mb 73f
10:24am 7 11 mph 1019.9mb 72f
10:18am 7 10 mph 1019.9mb 72f
10:12am 7 15 mph 1020mb 72f
10:06am 6 11 mph 1020mb 73f
10:00am 7 13 mph 1020mb 72f
9:54am 6 11 mph 1020.1mb 72f
9:48am 5 8 mph 1020mb 72f
9:42am 7 14 mph 1020.1mb 71f
9:36am 6 10 mph 1020.2mb 71f
9:30am 7 14 mph 1020.3mb 70f
9:24am 7 10 mph 1020.5mb 71f
9:18am 6 13 mph 1020.5mb 71f
9:12am 7 13 mph 1020.5mb 71f
9:06am 6 10 mph 1020.5mb 71f
9:00am 3 9 mph 1020.6mb 72f
8:54am 3 8 mph 1020.6mb 72f
8:48am 5 9 mph 1020.6mb 71f
8:42am 5 8 mph 1020.6mb 71f
8:36am 6 13 mph 1020.6mb 70f
8:30am 6 9 mph 1020.7mb 70f
8:24am 6 10 mph 1020.6mb 70f
8:18am 6 10 mph 1020.6mb 69f
8:12am 6 13 mph 1020.6mb 69f
8:06am 7 10 mph 1020.6mb 69f
8:00am 6 11 mph 1020.7mb 69f
7:54am 6 13 mph 1020.6mb 68f
7:48am 6 9 mph 1020.8mb 68f
7:42am 6 13 mph 1020.7mb 68f
7:36am 6 10 mph 1020.7mb 68f
7:30am 6 11 mph 1020.8mb 68f
7:24am 6 11 mph 1020.8mb 68f
7:18am 5 8 mph 1020.9mb 67f
7:12am 5 9 mph 1021mb 67f
7:06am 6 10 mph 1021mb 67f
7:00am 6 9 mph 1021mb 67f
6:54am 5 9 mph 1021.1mb 67f
6:48am 5 13 mph 1021.1mb 66f
6:42am 6 10 mph 1021.1mb 66f
6:36am 5 11 mph 1021.1mb 66f
6:30am 5 10 mph 1021mb 66f
6:24am 5 10 mph 1021mb 66f
6:18am 3 9 mph 1021mb 65f
6:12am 3 7 mph 1021mb 65f
6:06am 3 6 mph 1021mb 65f
6:00am 3 8 mph 1021mb 65f
5:54am 5 8 mph 1021mb 65f
5:48am 3 8 mph 1020.9mb 65f
5:42am 3 8 mph 1020.9mb 64f
5:36am 2 6 mph 1020.9mb 64f
5:30am 2 7 mph 1020.8mb 64f
5:24am 3 7 mph 1020.8mb 64f
5:18am 3 7 mph 1020.7mb 64f
5:12am 5 8 mph 1020.7mb 64f
5:06am 6 10 mph 1020.6mb 64f
5:00am 6 11 mph 1020.6mb 64f
4:54am 5 11 mph 1020.7mb 64f
4:48am 5 10 mph 1020.7mb 64f
4:42am 7 10 mph 1020.8mb 64f
4:36am 7 13 mph 1020.7mb 64f
4:30am 6 10 mph 1020.7mb 65f
4:24am 8 11 mph 1020.7mb 65f
4:18am 6 11 mph 1020.7mb 65f
4:12am 7 13 mph 1020.6mb 64f
4:06am 6 9 mph 1020.6mb 64f
4:00am 5 8 mph 1020.7mb 64f
3:54am 6 10 mph 1020.7mb 64f
3:48am 5 9 mph 1020.7mb 64f
3:42am 5 10 mph 1020.8mb 64f
3:36am 5 9 mph 1020.8mb 64f
3:30am 6 10 mph 1020.8mb 64f
3:24am 5 8 mph 1020.7mb 64f
3:18am 3 8 mph 1020.8mb 63f
3:12am 3 8 mph 1020.9mb 63f
3:06am 5 9 mph 1020.9mb 64f
3:00am 3 6 mph 1020.9mb 64f
2:54am 5 7 mph 1020.8mb 64f
2:48am 3 7 mph 1020.8mb -
2:42am 6 10 mph 1020.8mb -
2:36am 6 9 mph 1020.8mb -
2:30am 5 8 mph 1020.8mb 64f
2:24am 7 9 mph 1020.9mb 64f
2:18am 6 11 mph 1020.9mb 64f
2:12am 7 11 mph 1020.8mb 64f
2:06am 7 11 mph 1020.8mb 64f
2:00am 7 11 mph 1020.7mb 64f
1:54am 6 10 mph 1020.7mb 64f
1:48am 6 8 mph 1020.8mb -
1:42am 5 9 mph 1020.8mb -
1:36am 5 8 mph 1020.8mb -
1:30am 6 9 mph 1020.9mb 63f
1:24am 5 8 mph 1020.9mb 63f
1:18am 3 6 mph 1021mb 63f
1:12am 3 6 mph 1021mb 63f
1:06am 2 6 mph 1020.9mb 63f
1:00am 3 6 mph 1020.9mb 63f
12:54am 5 8 mph 1021mb 64f
12:48am 6 9 mph 1021mb 64f
12:42am 6 8 mph 1021mb 64f
12:36am 6 9 mph 1021mb 64f
12:30am 6 9 mph 1021mb 64f
12:24am 5 8 mph 1021mb 64f
12:18am 5 7 mph 1021.1mb 64f
12:12am 5 8 mph 1021.1mb 64f
12:06am 5 9 mph 1021.1mb 64f
12:00am 3 6 mph 1021.1mb 64f
Sun 06/26 11:54pm 3 8 mph 1021.2mb 64f
11:48pm 3 8 mph 1021.2mb 64f
11:42pm 5 8 mph 1021.1mb 64f
11:36pm 6 10 mph 1021.1mb 65f
11:30pm 6 9 mph 1021.2mb 65f
11:24pm 6 9 mph 1021.1mb 65f
11:18pm 5 8 mph 1021.1mb 65f
11:12pm 5 8 mph 1021.2mb 65f
11:06pm 5 8 mph 1021.1mb 65f
11:00pm  -  mph 1021mb -
10:54pm  -  mph 1021mb -
10:48pm  -  mph 1021mb -
10:42pm  -  mph 1021.1mb -
10:36pm  -  mph 1021.1mb -
10:30pm  -  mph 1021.2mb -
10:24pm  -  mph 1021.3mb -
10:18pm  -  mph 1021.3mb 65f
10:12pm  -  mph 1021.4mb 65f
10:06pm  -  mph 1021.3mb 65f
10:00pm  -  mph 1021.3mb 65f
9:54pm  -  mph 1021.3mb 65f
9:48pm  -  mph 1021.4mb 65f
9:42pm  -  mph 1021.4mb 65f
9:36pm  -  mph 1021.4mb 65f
9:30pm  -  mph 1021.4mb -
9:24pm  -  mph 1021.4mb -
9:18pm  -  mph 1021.4mb -
9:12pm  -  mph 1021.4mb -
9:06pm  -  mph 1021.3mb -
9:00pm  -  mph 1021.3mb -
8:54pm  -  mph 1021.3mb -
8:48pm  -  mph 1021.3mb -
8:42pm  -  mph 1021.3mb -
8:36pm  -  mph 1021.3mb -
8:30pm  -  mph 1021.3mb -
8:24pm  -  mph 1021.5mb -
8:18pm  -  mph 1021.5mb 67f
8:12pm  -  mph 1021.5mb 68f
8:06pm  -  mph 1021.6mb 68f
8:00pm  -  mph 1021.6mb 68f
7:54pm  -  mph 1021.6mb 69f
7:48pm  -  mph 1021.7mb 69f
7:42pm  -  mph 1021.8mb 69f
7:36pm  -  mph 1021.8mb 69f
7:30pm 3 7 mph 1021.9mb -
7:24pm 5 8 mph 1021.9mb -
7:18pm  -  mph 1022mb 69f
7:12pm  -  mph 1022mb 69f
7:06pm  -  mph 1022mb 69f
7:00pm 5 11 mph 1021.9mb -
6:54pm 6 11 mph 1022mb -
6:48pm 5 11 mph 1022.1mb -
6:42pm 6 10 mph 1022.2mb -
6:36pm 6 13 mph 1022.2mb -
6:30pm 5 10 mph 1022.2mb -
6:24pm 7 11 mph 1022.3mb -
6:18pm  -  mph 1022.2mb 70f
6:12pm  -  mph 1022.3mb 70f
6:06pm  -  mph 1022.4mb 70f
6:00pm  -  mph 1022.4mb -
5:54pm  -  mph 1022.4mb -
5:48pm  -  mph 1022.5mb -
5:42pm  -  mph 1022.5mb -
5:36pm  -  mph 1022.5mb -
5:30pm 6 13 mph 1022.5mb 71f
5:24pm 6 14 mph 1022.6mb 71f
5:18pm 6 11 mph 1022.7mb 72f
5:12pm 6 11 mph 1022.7mb 71f
5:06pm 7 14 mph 1022.8mb 72f
5:00pm 6 15 mph 1022.9mb 72f
4:54pm 6 13 mph 1022.9mb 72f
4:48pm 7 13 mph 1022.9mb 71f
4:42pm 6 13 mph 1022.9mb 71f
4:36pm 7 14 mph 1023mb 71f
4:30pm 6 14 mph 1023mb 71f
4:24pm 7 14 mph 1023mb 71f
4:18pm 7 16 mph 1023mb 71f
4:12pm 7 15 mph 1023mb 71f
4:06pm 7 11 mph 1023.1mb 71f
4:00pm 8 15 mph 1023.1mb 71f
3:54pm 8 16 mph 1023.1mb 71f
3:48pm 7 14 mph 1023.2mb 71f
3:42pm 7 13 mph 1023.2mb 71f
3:36pm 7 15 mph 1023.3mb 71f
3:30pm 8 15 mph 1023.3mb 71f
3:24pm 6 13 mph 1023.4mb 71f
3:18pm 7 15 mph 1023.4mb 71f
3:12pm 8 16 mph 1023.5mb 71f
3:06pm 8 17 mph 1023.6mb 71f
3:00pm 9 16 mph 1023.6mb 71f
2:54pm 6 15 mph 1023.7mb 71f
2:48pm 7 16 mph 1023.7mb 71f
2:42pm 7 15 mph 1023.6mb 71f
2:36pm 7 14 mph 1023.6mb 71f
2:30pm 7 16 mph 1023.6mb 71f
2:24pm 6 14 mph 1023.7mb 72f
2:18pm 6 13 mph 1023.6mb 72f
2:12pm 6 14 mph 1023.7mb 71f
2:06pm 8 15 mph 1023.7mb 71f
2:00pm 7 16 mph 1023.7mb 71f
1:54pm 7 14 mph 1023.7mb 71f
1:48pm 8 14 mph 1023.8mb 70f
1:42pm 8 16 mph 1023.7mb 70f
1:36pm 8 15 mph 1023.8mb 70f
1:30pm 7 13 mph 1023.8mb 71f
1:24pm 7 16 mph 1023.9mb 71f
1:18pm 7 13 mph 1023.8mb 71f
1:12pm 6 13 mph 1023.8mb 72f
1:06pm 8 14 mph 1023.8mb 70f
1:00pm 7 16 mph 1023.7mb 71f
12:54pm 6 17 mph 1023.7mb 71f
12:48pm 8 16 mph 1023.8mb 71f
12:42pm 7 16 mph 1023.8mb 71f
12:36pm 8 16 mph 1023.9mb 71f
12:30pm 7 13 mph 1024mb 72f
12:24pm 8 15 mph 1024mb 71f
12:18pm 7 14 mph 1023.9mb 72f
12:12pm 6 13 mph 1023.9mb 72f
12:06pm 7 15 mph 1023.9mb 72f
12:00pm 5 13 mph 1023.9mb 72f
11:54am 7 13 mph 1023.9mb 71f
11:48am 8 14 mph 1024mb 71f
11:42am 7 13 mph 1024.2mb 72f
11:36am 6 11 mph 1024.3mb 73f
11:30am 3 9 mph 1024.2mb 73f
11:24am 7 11 mph 1024.1mb 72f
11:18am 7 11 mph 1024.1mb 72f
11:12am 6 10 mph 1024.1mb 72f
11:06am 7 11 mph 1024.1mb 71f
11:00am 5 9 mph 1024.1mb 71f
10:54am 6 10 mph 1024mb 71f
10:48am 5 9 mph 1024.2mb 71f
10:42am 6 11 mph 1024.1mb 72f
10:36am 5 11 mph 1023.9mb 72f
10:30am 5 9 mph 1023.9mb 72f
10:24am 3 8 mph 1024mb 72f
10:18am 2 7 mph 1024mb 72f
10:12am 3 7 mph 1024.2mb 72f
10:06am 2 6 mph 1024.1mb 71f
10:00am 5 8 mph 1024.2mb 71f
9:54am 5 8 mph 1024.3mb 71f
9:48am 5 7 mph 1024.5mb 70f
9:42am 5 7 mph 1024.5mb 70f
9:36am 5 8 mph 1024.5mb 71f
9:30am 5 8 mph 1024.5mb 71f
9:24am 5 8 mph 1024.5mb 70f
9:18am 5 7 mph 1024.5mb 69f
9:12am 3 6 mph 1024.6mb 69f
9:06am 3 6 mph 1024.7mb 68f
9:00am 2 6 mph 1024.7mb 68f
8:54am 3 8 mph 1024.7mb 68f
8:48am 5 7 mph 1024.7mb 67f
8:42am 2 5 mph 1024.7mb 68f
8:36am 2 6 mph 1024.7mb 68f
8:30am 1 3 mph 1024.6mb 68f
8:24am 1 3 mph 1024.4mb 67f
8:18am 3 5 mph 1024.4mb 67f
8:12am 2 5 mph 1024.5mb 67f
8:06am 2 5 mph 1024.5mb 66f
8:00am 2 5 mph 1024.4mb 66f
7:54am 3 5 mph 1024.3mb 65f
7:48am 2 5 mph 1024.4mb 65f
7:42am 2 5 mph 1024.3mb 65f
7:36am 2 5 mph 1024.3mb 65f
7:30am 2 5 mph 1024.2mb 65f
7:24am 2 3 mph 1024.2mb 65f
7:18am 2 3 mph 1024.2mb 65f
7:12am 2 3 mph 1024.2mb 64f
7:06am 2 5 mph 1024.1mb 64f
7:00am  -  2 mph 1024mb 65f
6:54am  -  2 mph 1023.9mb 65f
6:48am  -  2 mph 1023.9mb 65f
6:42am  -  2 mph 1023.9mb 65f
6:36am  -  1 mph 1023.9mb 65f
6:30am  -  1 mph 1023.9mb 65f
6:24am  -  mph 1023.8mb 65f
6:18am  -  mph 1023.9mb 64f
6:12am  -  1 mph 1024mb 64f
6:06am  -  mph 1024mb 64f
6:00am  -  mph 1024.1mb 62f
5:54am  -  1 mph 1024.2mb 61f
5:48am  -  1 mph 1024.3mb 61f
5:42am 1 2 mph 1024.2mb 61f
5:36am 1 2 mph 1024.3mb 60f
5:30am  -  1 mph 1024.3mb 60f
5:24am 1 2 mph 1024.4mb 59f
5:18am 1
mph
1024.4mb 59f
5:12am 2
mph
1024.4mb 58f
5:06am 2
mph
1024.4mb 58f
5:00am  -  1 mph 1024.3mb 59f
4:54am  -  1 mph 1024.3mb 59f
4:48am  -  1 mph 1024.4mb 59f
4:42am 1 2 mph 1024.4mb 59f
4:36am 1 2 mph 1024.4mb 59f
4:30am 1 2 mph 1024.4mb 59f
4:24am 2 3 mph 1024.4mb 59f
4:18am 3 5 mph 1024.5mb 59f
4:12am 2 3 mph 1024.5mb 59f
4:06am 2 3 mph 1024.4mb 59f
4:00am 2 3 mph 1024.4mb 59f
3:54am 2 3 mph 1024.3mb 59f
3:48am 2 3 mph 1024.2mb 59f
3:42am 2
mph
1024.2mb 59f
3:36am 2
mph
1024.1mb 59f
3:30am 2 3 mph 1024.1mb -
3:24am 2 3 mph 1024.2mb -
3:18am 2 3 mph 1024.2mb 59f
3:12am 2 3 mph 1024.1mb 59f
3:06am 2 3 mph 1024mb 59f
3:00am 2 3 mph 1024mb 60f
2:54am 3 5 mph 1023.9mb 60f
2:48am 3 5 mph 1023.8mb -
2:42am 2 3 mph 1023.8mb -
2:36am 3
mph
1023.7mb -
2:30am 3
mph
1023.7mb 60f
2:24am 2 3 mph 1023.6mb 60f
2:18am 3
mph
1023.7mb 60f
2:12am 2 3 mph 1023.6mb 60f
2:06am 2
mph
1023.6mb 60f
2:00am  -  mph 1023.7mb 60f
1:54am  -  mph 1023.6mb 60f
1:48am  -  mph 1023.5mb 60f
1:42am  -  mph 1023.5mb 60f
1:36am  -  mph 1023.6mb 60f
1:30am 2 3 mph 1023.6mb 60f
1:24am 2 3 mph 1023.5mb 61f
1:18am 2 3 mph 1023.5mb 61f
1:12am 2 6 mph 1023.6mb 61f
1:06am 2 3 mph 1023.6mb 61f
1:00am 1 3 mph 1023.6mb 62f
12:54am 2 5 mph 1023.6mb 62f
12:48am 2 5 mph 1023.6mb 62f
12:42am 2 5 mph 1023.6mb 61f
12:36am 2 3 mph 1023.7mb 61f
12:30am 2 5 mph 1023.6mb 61f
12:24am 2 5 mph 1023.6mb 61f
12:18am 2 3 mph 1023.7mb 61f
12:12am 2 3 mph 1023.7mb 61f
12:06am 2 5 mph 1023.7mb 62f
12:00am 1 3 mph 1023.7mb 62f
Sat 06/25 11:54pm 2 6 mph 1023.7mb 62f
11:48pm  -  mph 1023.6mb 62f
11:42pm  -  mph 1023.8mb 61f
11:36pm  -  mph 1023.9mb 62f
11:30pm 1 3 mph 1023.9mb 62f
11:24pm 2 5 mph 1023.9mb 62f
11:18pm 1 3 mph 1023.9mb 62f
11:12pm 2 5 mph 1023.9mb 62f
11:06pm 2 3 mph 1023.9mb 62f
11:00pm  -  mph 1023.9mb 62f
10:54pm  -  mph 1023.9mb 62f
10:48pm  -  mph 1023.9mb -
10:42pm  -  mph 1024mb -
10:36pm  -  mph 1024mb -
10:30pm  -  mph 1024.1mb 62f
10:24pm  -  mph 1024mb 63f
10:18pm  -  mph - 63f
10:12pm  -  mph - 63f
10:06pm  -  mph - 63f
10:00pm  -  mph 1024.2mb 63f
9:54pm  -  mph 1024.2mb 63f
9:48pm  -  mph 1024.2mb 63f
9:42pm  -  mph 1024.2mb 63f
9:36pm  -  mph 1024.2mb 63f
9:30pm  -  mph 1024.1mb -
9:24pm  -  mph 1024.1mb -
9:18pm  -  mph 1024.1mb 64f
9:12pm  -  mph 1024mb 64f
9:06pm  -  mph 1023.9mb 64f
9:00pm  -  mph 1023.7mb -
8:54pm  -  mph 1023.6mb -
8:48pm  -  mph 1023.4mb -
8:42pm  -  mph 1023.4mb -
8:36pm  -  mph 1023.4mb -
8:30pm 5 8 mph - -
8:24pm 5 9 mph - -
8:18pm  -  mph 1023.4mb 65f
8:12pm  -  mph 1023.3mb 65f
8:06pm  -  mph 1023.3mb 65f
8:00pm  -  mph 1023.2mb 65f
7:54pm  -  mph 1023.1mb 65f
7:48pm  -  mph 1023mb 66f
7:42pm  -  mph 1023mb 66f
7:36pm  -  mph 1023mb 66f
7:30pm  -  mph 1023.1mb -
7:24pm  -  mph 1022.9mb -
7:18pm  -  mph 1023mb 67f
7:12pm  -  mph 1022.9mb 67f
7:06pm  -  mph 1022.8mb 67f
7:00pm  -  mph 1022.8mb -
6:54pm  -  mph 1022.9mb -
6:48pm  -  mph 1022.9mb -
6:42pm  -  mph 1023mb -
6:36pm  -  mph 1022.9mb -
6:30pm  -  mph 1022.9mb -
6:24pm  -  mph 1022.8mb -
6:18pm  -  mph 1022.8mb 69f
6:12pm  -  mph 1022.7mb 71f
6:06pm  -  mph 1022.8mb 71f
6:00pm  -  mph 1022.6mb 72f
5:54pm  -  mph 1022.5mb 74f
5:48pm  -  mph 1022.4mb -
5:42pm  -  mph 1022.4mb -
5:36pm  -  mph 1022.5mb -
5:30pm 5 9 mph 1022.6mb 74f
5:24pm 3 7 mph 1022.6mb 74f
5:18pm 5 9 mph 1022.5mb 74f
5:12pm 5 11 mph 1022.4mb 73f
5:06pm 3 8 mph 1022.4mb 73f
5:00pm 5 9 mph 1022.4mb 73f
4:54pm 6 9 mph 1022.4mb 73f
4:48pm 6 10 mph 1022.4mb 73f
4:42pm 7 9 mph 1022.4mb 73f
4:36pm 6 9 mph 1022.5mb 73f
4:30pm 7 13 mph 1022.5mb 73f
4:24pm 6 10 mph 1022.4mb 73f
4:18pm 6 11 mph 1022.4mb 73f
4:12pm 6 10 mph 1022.4mb 74f
4:06pm 5 7 mph 1022.4mb 74f
4:00pm 5 11 mph 1022.3mb 75f
3:54pm 6 10 mph 1022.3mb 74f
3:48pm 5 9 mph 1022.3mb 74f
3:42pm 5 10 mph 1022.2mb 75f
3:36pm 5 8 mph 1022.3mb 75f
3:30pm 6 10 mph 1022.3mb 75f
3:24pm 5 9 mph 1022.3mb 75f
3:18pm 6 11 mph 1022.3mb 74f
3:12pm 7 14 mph 1022.3mb 74f
3:06pm 7 14 mph 1022.5mb 74f
3:00pm 5 10 mph 1022.6mb 75f
2:54pm 7 13 mph 1022.7mb 75f
2:48pm 7 13 mph 1022.8mb 74f
2:42pm 6 14 mph 1022.8mb 74f
2:36pm 6 11 mph 1022.8mb 76f
2:30pm 7 10 mph 1022.8mb 75f
2:24pm 5 9 mph 1022.8mb 76f
2:18pm 6 11 mph 1022.8mb 76f
2:12pm 6 11 mph 1022.8mb 75f
2:06pm 6 10 mph 1022.9mb 75f
2:00pm 6 10 mph - 75f
1:54pm 6 9 mph - 75f
1:48pm 5 8 mph - -
1:42pm 5 8 mph 1023mb 75f
1:36pm 6 10 mph 1023mb 76f
1:30pm 6 10 mph 1023mb 74f
1:24pm 5 9 mph 1022.9mb 75f
1:18pm 7 10 mph 1022.9mb 75f
1:12pm 6 11 mph 1022.9mb 76f
1:06pm 7 10 mph 1022.9mb 74f
1:00pm  -  mph 1022.9mb 74f
12:54pm  -  mph 1022.9mb 76f
12:48pm 3 5 mph 1022.9mb 77f
12:42pm 2 5 mph 1023mb 77f
12:36pm 3 8 mph 1023mb 77f
12:30pm 2 3 mph 1023mb 77f
12:24pm 1 3 mph 1023.1mb 77f
12:18pm 1 3 mph 1023.1mb 77f
12:12pm 2
mph
1023.1mb 76f
12:06pm 1 2 mph 1023.1mb 75f
12:00pm 2 3 mph 1023.1mb 75f
11:54am 2
mph
1023.1mb 76f
11:48am 1 2 mph 1023.1mb 76f
11:42am 2 3 mph 1023.2mb 75f
11:36am 2
mph
1023.3mb 75f
11:30am 2
mph
1023.3mb 75f
11:24am 2 3 mph 1023.5mb 74f
11:18am 2
mph
1023.5mb 73f
11:12am 2 3 mph 1023.5mb 73f
11:06am 2 3 mph 1023.5mb 73f
11:00am 2 3 mph 1023.5mb 73f
10:54am 3 6 mph 1023.4mb 72f
10:48am 2 3 mph 1023.5mb 72f
10:42am 3 5 mph 1023.5mb 72f
10:36am 2 5 mph 1023.5mb 72f
10:30am 2 3 mph 1023.6mb 71f
10:24am 2 3 mph 1023.6mb 71f
10:18am 2 3 mph 1023.5mb 71f
10:12am 2 3 mph 1023.5mb 71f
10:06am  -  2 mph 1023.5mb 71f
10:00am 1 2 mph 1023.5mb 71f
9:54am  -  2 mph 1023.5mb 71f
9:48am  -  1 mph 1023.5mb 71f
9:42am 1 3 mph 1023.5mb 70f
9:36am  -  2 mph 1023.5mb 70f
9:30am 2 3 mph 1023.5mb 70f
9:24am  -  2 mph 1023.5mb 70f
9:18am 2 3 mph 1023.4mb 69f
9:12am 2 3 mph 1023.4mb 69f
9:06am 2 3 mph 1023.4mb 69f
9:00am 2
mph
1023.4mb 69f
8:54am 2 3 mph 1023.3mb 69f
8:48am 3 6 mph 1023.2mb 69f
8:42am 3 6 mph 1023.2mb 68f
8:36am 3 6 mph 1023.2mb 67f
8:30am 5 6 mph 1023.2mb 67f
8:24am 5 6 mph 1023.2mb 67f
8:18am 5 7 mph 1023.3mb 67f
8:12am 5 7 mph 1023.3mb 67f
8:06am 6 8 mph 1023.3mb 67f
8:00am 6 9 mph 1023.2mb 66f
7:54am 6 8 mph 1023.2mb 66f
7:48am 7 9 mph 1023.2mb 66f
7:42am 6 8 mph 1023.2mb 66f
7:36am 6 7 mph 1023.2mb 66f
7:30am 5 7 mph 1023.2mb 66f
7:24am 5 8 mph 1023.1mb 66f
7:18am 5 6 mph 1023.1mb 65f
7:12am 5 7 mph 1023.1mb 65f
7:06am 6 7 mph 1023.1mb 64f
7:00am 5 7 mph 1023.1mb 64f
6:54am 3 7 mph 1023mb 64f
6:48am 5 7 mph 1022.9mb 64f
6:42am 5 7 mph 1022.9mb 64f
6:36am 2 5 mph 1022.9mb 63f
6:30am 3 5 mph 1022.9mb 63f
6:24am 3 5 mph 1022.8mb 63f
6:18am 5 8 mph 1022.7mb 63f
6:12am 2 5 mph 1022.6mb 63f
6:06am 2 6 mph 1022.5mb 62f
6:00am 2 5 mph 1022.4mb 61f
5:54am 2 5 mph 1022.3mb 61f
5:48am 2 7 mph 1022.2mb 61f
5:42am 2 5 mph 1022.2mb 61f
5:36am 2 3 mph 1022.2mb 62f
5:30am 2 3 mph 1022.1mb 62f
5:24am 2
mph
1022mb 61f
5:18am 2 5 mph 1022mb 61f
5:12am 2 3 mph 1022mb 60f
5:06am 2 3 mph 1022mb 60f
5:00am 2 3 mph 1022mb 58f
4:54am 1 2 mph 1021.9mb 59f
4:48am 1 2 mph 1021.7mb 60f
4:42am  -  1 mph 1021.7mb 60f
4:36am 1 2 mph 1021.7mb 60f
4:30am  -  1 mph 1021.7mb 60f
4:24am  -  mph 1021.7mb 60f
4:18am  -  1 mph 1021.7mb 59f
4:12am  -  2 mph 1021.6mb 60f
4:06am  -  1 mph 1021.6mb 59f
4:00am 1 2 mph 1021.5mb 59f
3:54am  -  2 mph 1021.4mb 61f
3:48am  -  2 mph 1021.4mb 62f
3:42am  -  1 mph 1021.4mb 62f
3:36am 2
mph
1021.4mb 62f
3:30am 3 5 mph 1021.5mb 61f
3:24am 2 3 mph 1021.5mb 61f
3:18am 1 2 mph 1021.5mb 60f
3:12am 1 2 mph 1021.5mb 60f
3:06am 1
mph
1021.5mb 60f
3:00am 1 2 mph 1021.6mb 59f
2:54am 1 2 mph 1021.6mb 60f
2:48am  -  1 mph 1021.6mb 60f
2:42am 1 2 mph 1021.6mb 60f
2:36am 2 3 mph 1021.5mb 62f
2:30am 1
mph
1021.5mb 62f
2:24am  -  1 mph 1021.6mb 61f
2:18am  -  mph 1021.5mb 60f
2:12am  -  mph 1021.5mb 60f
2:06am  -  mph 1021.5mb 60f
2:00am  -  mph 1021.5mb 61f
1:54am  -  mph 1021.5mb 61f
1:48am  -  mph 1021.4mb 60f
1:42am  -  mph 1021.4mb 60f
1:36am  -  mph 1021.4mb 61f
1:30am  -  1 mph 1021.4mb 62f
1:24am  -  1 mph 1021.4mb 62f
1:18am 2
mph
1021.3mb 63f
1:12am 1 2 mph 1021.3mb 62f
1:06am 1 2 mph 1021.3mb 62f
1:00am 2 3 mph 1021.3mb 62f
12:54am 1 2 mph 1021.3mb 61f
12:48am 1 2 mph 1021.3mb 62f
12:42am  -  1 mph 1021.3mb 62f
12:36am 1 2 mph 1021.3mb 62f
12:30am  -  2 mph 1021.3mb 62f
12:24am 2
mph
1021.2mb 62f
12:18am 2 3 mph 1021.3mb 62f
12:12am  -  2 mph 1021.3mb 62f
12:06am 2
mph
1021.2mb 62f
12:00am 2 3 mph 1021.1mb 62f
Fri 06/24 11:54pm 2 3 mph 1021.2mb 62f
11:48pm  -  mph 1021.1mb -
11:42pm  -  mph 1021.2mb -
11:36pm  -  mph 1021.2mb -
11:30pm 1 2 mph 1021.2mb 62f
11:24pm 1 2 mph 1021.2mb 62f
11:18pm 2 3 mph 1021.2mb 62f
11:12pm 3
mph
1021.2mb 62f
11:06pm 2 3 mph 1021.2mb 62f
11:00pm  -  mph 1021.2mb -
10:54pm  -  mph 1021.2mb -
10:48pm  -  mph 1021.3mb -
10:42pm  -  mph 1021.3mb -
10:36pm  -  mph 1021.3mb -
10:30pm  -  mph 1021.3mb -
10:24pm  -  mph 1021.2mb -
10:18pm  -  mph - 62f
10:12pm  -  mph - 62f
10:06pm  -  mph - 63f
10:00pm 2
mph
- -
9:54pm 2
mph
- -
9:48pm  -  mph 1021mb -
9:42pm  -  mph 1021mb -
9:36pm  -  mph 1021mb -
9:30pm  -  mph 1020.9mb 65f
9:24pm  -  mph 1020.9mb 65f
9:18pm  -  mph 1020.8mb 65f
9:12pm  -  mph 1020.7mb 65f
9:06pm  -  mph 1020.7mb 66f
9:00pm  -  mph 1020.7mb 66f
8:54pm  -  mph 1020.6mb 66f
8:48pm  -  mph 1020.5mb 65f
8:42pm  -  mph 1020.5mb 65f
8:36pm  -  mph 1020.4mb 67f
8:30pm  -  mph 1020.4mb 68f
8:24pm  -  mph 1020.4mb 68f
8:18pm  -  mph 1020.4mb 69f
8:12pm  -  mph 1020.4mb 69f
8:06pm  -  mph 1020.4mb 69f
8:00pm  -  mph 1020.4mb 70f
7:54pm  -  mph 1020.4mb 70f
7:48pm  -  mph 1020.5mb -
7:42pm  -  mph 1020.4mb -
7:36pm  -  mph 1020.4mb -
7:30pm  -  mph 1020.3mb -
7:24pm  -  mph 1020.3mb -
7:18pm  -  mph - 73f
7:12pm  -  mph - 73f
7:06pm  -  mph - 73f
7:00pm  -  mph 1020.2mb -
6:54pm  -  mph 1020.2mb -
6:48pm  -  mph 1020.2mb -
6:42pm  -  mph 1020.2mb -
6:36pm  -  mph 1020.2mb -
6:30pm  -  mph 1020.1mb -
6:24pm  -  mph 1020mb -
6:18pm  -  mph 1019.9mb 74f
6:12pm  -  mph 1019.8mb 74f
6:06pm  -  mph 1019.8mb 74f
6:00pm  -  mph 1019.8mb 75f
5:54pm  -  mph 1019.8mb 75f
5:48pm  -  mph 1019.8mb 75f
5:42pm  -  mph 1019.8mb 75f
5:36pm  -  mph 1019.8mb 75f
5:30pm 7 14 mph 1019.8mb 75f
5:24pm 6 13 mph 1019.8mb 76f
5:18pm 6 11 mph 1019.7mb 77f
5:12pm 5 9 mph 1019.6mb 77f
5:06pm 5 10 mph 1019.5mb 77f
5:00pm 3 8 mph 1019.5mb 76f
4:54pm 5 13 mph 1019.5mb 76f
4:48pm 6 13 mph 1019.5mb 76f
4:42pm 3 7 mph 1019.4mb 78f
4:36pm 3 8 mph 1019.3mb 78f
4:30pm 6 11 mph 1019.3mb 78f
4:24pm 6 11 mph 1019.3mb 78f
4:18pm 7 15 mph 1019.3mb 78f
4:12pm 7 14 mph 1019.3mb 78f
4:06pm 7 14 mph 1019.2mb 78f
4:00pm 3 10 mph 1019.2mb 78f
3:54pm 7 17 mph 1019.2mb 78f
3:48pm 3 9 mph 1019.2mb 78f
3:42pm 5 10 mph 1019.2mb 78f
3:36pm 6 11 mph 1019.1mb 77f
3:30pm 6 13 mph 1019.1mb -
3:24pm 7 13 mph 1019.1mb -
3:18pm 5 7 mph 1019mb 79f
3:12pm 2 3 mph 1019mb 81f
3:06pm 1 5 mph 1019mb 80f
3:00pm  -  3 mph 1019mb 79f
2:54pm 2 6 mph 1019mb 79f
2:48pm 2 5 mph 1019mb 79f
2:42pm 2 5 mph 1019mb 79f
2:36pm 3 5 mph 1019mb 80f
2:30pm 3 5 mph 1018.9mb 80f
2:24pm 5 6 mph 1018.9mb 80f
2:18pm 2 5 mph 1019mb 81f
2:12pm 2 5 mph 1019mb 81f
2:06pm 2 5 mph 1019mb 81f
2:00pm 2 5 mph 1019mb 80f
1:54pm 3 5 mph 1019.1mb 80f
1:48pm 2 3 mph 1019mb 80f
1:42pm 2 3 mph 1019mb 80f
1:36pm 3 6 mph 1019mb 79f
1:30pm 3 6 mph 1019mb 79f
1:24pm 3 6 mph 1019mb 80f
1:18pm 3 5 mph 1019mb 78f
1:12pm 5 6 mph 1019mb 77f
1:06pm 6
mph
1019mb 76f
1:00pm 6
mph
1019mb 78f
12:54pm 5 8 mph 1019mb 78f
12:48pm 7 8 mph 1019.1mb 76f
12:42pm 7 8 mph 1019.1mb 77f
12:36pm 6 7 mph 1019.1mb 76f
12:30pm 7 8 mph 1019mb 76f
12:24pm 6 8 mph 1019mb 75f
12:18pm 6 8 mph 1019mb 76f
12:12pm 3 6 mph 1019mb 77f
12:06pm 5 7 mph 1018.9mb 78f
12:00pm 2 5 mph 1019mb 78f
11:54am 3 7 mph 1019mb 78f
11:48am 6 7 mph 1018.9mb 78f
11:42am 5 8 mph 1018.8mb 77f
11:36am 5 7 mph 1018.8mb 77f
11:30am 6 8 mph 1018.8mb 77f
11:24am 5 7 mph 1018.7mb 76f
11:18am 6 7 mph 1018.7mb 75f
11:12am 6 9 mph 1018.7mb 75f
11:06am 7 8 mph 1018.7mb 76f
11:00am 7 10 mph 1018.6mb 76f
10:54am 8 11 mph 1018.6mb 76f
10:48am 8 13 mph 1018.6mb 76f
10:42am 8 11 mph 1018.5mb 75f
10:36am 9 13 mph 1018.5mb 75f
10:30am 8 13 mph 1018.4mb 75f
10:24am 9 13 mph 1018.4mb 74f
10:18am 9 11 mph 1018.4mb 74f
10:12am 9 13 mph 1018.4mb 74f
10:06am 9 14 mph 1018.3mb 74f
10:00am 9 14 mph 1018.3mb 74f